Volver al catálogo

PANDORA

ActivoCienciaSSO
NORAD 67395·PAYLOAD·🇺🇸 United States

Lanzado Jan 11, 2026 desde Vandenberg Space Force Base

Loading…

Próximos Pases (próximas 24 horas)

TLE

ActualizadoSource: Space-Track

Época: Sep 14, 2026, 11:08 UTC

1 67395U 26004AJ  26257.46403054  .00000541  00000-0  64563-4 0  9998
2 67395  97.8103 254.7693 0005022 178.3355 181.7880 14.88199450 36558

Sigue PANDORA en tiempo real con AllMySat

Download on the App Store